STARLINK-32959, 63569

Orbit data source: Space-Track

STARLINK-32959, 63569 is a payload satellite owned by SpaceX/Seattle (US) in LEO that was launched on Mon, 14 Apr 2025 UTC via an FALCON 9 launch vehicle from the Air Force Eastern Test Range (AFETR). Payload-class satellites include a variety of spacecraft equipped with specific instruments for various scientific and technological missions. These include communications satellites like Starlink; space stations such as the ISS; scientific satellites like the Hubble; Earth observation satellites from companies like Planet Labs, Umbra, and HawkEye 360; GPS; miniature CubeSats for education and research; and military/defense satellites.

Loading next visibility...
Identifier
63569, 2025-076A
Orbit
LEO
Country
Flag of USUS
Related business
Manufacturer
SpaceX/Seattle
Mission
Operational Commercial Communications
Bus & Motor
STARLINK V2M, Unknown motor
Mass
730 kg wet, ~700 kg dry
Launch date (UTC)
2025-04-14 (7 months ago)
Launch vehicle
FALCON 9
Launch site
Air Force Eastern Test Range (AFETR)
Object type
Payload
Rocket body
Debris
Shape & HBR
Box + 2 Pan, 17.7 m
Radar Cross Section
33.884 m², Large (>1 m²)

Expand to show TLE details & history
Last TLE update: 15 hours ago

TLE from 15 hours ago
0 STARLINK-32959
1 63569U 25076A   25302.51417411  .00047603  00000-0  17262-2 0  9995
2 63569  43.0034 346.4828 0000703 271.5775  88.4996 15.27619305 31720
Epoch: 2025-10-29T12:20Z
TLE epoch observation values (Epoch: 2025-10-29T12:20:24.643Z)
Latitude
-0.00001°
Longitude
123.29389°
Altitude
482.695 km
Speed
7.626 km/s
True Right ascension
23h 05m 55s
True Declination
0° 00' 00"
Sunlit
Object was in full shadow at epoch
Visualization orbit readout
Latitude
Unknown
Longitude
Unknown
Altitude
Unknown
Speed
Unknown
Apparent Right ascension
Unknown
Apparent Declination
Unknown
Sunlit
N/A
Visualization observer readout
Local Sidereal Time
22:58:16
Azimuth
Unknown
Elevation
Unknown
Doppler factor
Unknown
Orbital elements
Apogee altitude
485.359 km
Perigee altitude
484.394 km
Semi-major axis
6,863.013 km
Eccentricity
0.00007
Inclination
43.0034°
RAAN
346.4828°
Arg. of periapsis
271.5775°
True anomaly
88.50765°
Mean anomaly
88.4996°
Eccentric anomaly
88.50363°
Mean motion
3.81743 °/min
Orbital period
94.3 mins
BSTAR
0.0017262
Loading maneuver chart data...
Computing Atmospheric mass density...
Loading historical data...
Loading historical data...
Loading historical data...
Loading historical data...
Loading historical data...
Loading historical data...
Loading historical data...

Documentation

Showing up to 5 results
|